Tracking 23446 objects as of 19-Jun-2021
HD Live streaming from Space Station
objects crossing your sky now

ONEWEB-0238

Track ONEWEB-0238 now!
10-day predictions
ONEWEB-0238 is classified as:


NORAD ID: 48784
Int'l Code: 2021-045T
Perigee: 449.9 km
Apogee: 462.9 km
Inclination: 87.4 °
Period: 93.6 minutes
Semi major axis: 6827 km
RCS: Unknown
Launch date: May 28, 2021
Source: United Kingdom (UK)
Launch site: VOSTOCHNY COSMODROME (VOSTO)
aabbcc
Your satellite tracking list
Your tracking list is empty




NASA's NSSDC Master Catalog

Two Line Element Set (TLE):
1 48784U 21045T   21169.75001157 -.00863610  00000-0 -24297-1 0  9999
2 48784  87.4053 269.1515 0009470 184.2072 118.5403 15.38930659  1803
Source of the keplerian elements: AFSPC